Location: Unspecified
(35.7250°N, 0.0000°E)
Time: 14:06:27
(UTC+00:00)

Tiros 1 - Pass Details

Date: 03 July 2019
Orbit: 630 x 664 km, 48.4° (Epoch: 17 August)

Event Time Altitude Azimuth Distance (km) Brightness Sun altitude
Rises 23:30:24 0° 310° (NW) 2,956 11.2 -30.8°
Reaches altitude 10° 23:33:01 10° 322° (NW) 2,038 10.4 -30.9°
Maximum altitude 23:37:05 28° 22° (NNE) 1,194 8.9 -31.0°
Enters shadow 23:37:42 27° 36° (NE) 1,218 8.9 -31.0°
